Location: Black Swamp Observatory
(41.3920°N, 84.1250°W)
Time: 02:39:12
(UTC-04:00)

A-11 Canister half - Pass Details

Date: 22 January 2022
Orbit: 1527 x 1682 km, 47.3° (Epoch: 27 May)

Event Time Altitude Azimuth Distance (km) Brightness Sun altitude
Rises 18:21:11 0° 297° (WNW) 4,776 12.3 -7.9°
Reaches altitude 10° 18:24:14 10° 295° (WNW) 3,810 11.8 -8.4°
Maximum altitude 18:33:55 74° 213° (SSW) 1,690 9.4 -10.2°
Drops below altitude 10° 18:43:54 10° 131° (SE) 3,912 10.8 -12.0°
Sets 18:47:05 0° 130° (SE) 4,910 11.3 -12.5°
